Bloomington, IN

4:39 PM EST on November 18, 2017 (GMT -0500)
Monroe County

Weather History for KBMG - June, 2013

Change the Weather History Date:

Wednesday, June 12, 2013

  Actual Average Record
Temperature  
Mean Temperature 82 °F 71 °F  
Max Temperature 91 °F 82 °F 93 °F (2016)
Min Temperature 72 °F 60 °F 55 °F (2006)
Degree Days  
Heating Degree Days 0 0  
Month to date heating degree days 7 13  
Since 1 June heating degree days 7 13  
Since 1 July heating degree days 5300 5264  
Cooling Degree Days 17 6  
Month to date cooling degree days 63 65  
Year to date cooling degree days 182 147  
Since 1 June cooling degree days 63 65  
Growing Degree Days 32 (Base 50)    
Moisture  
Dew Point 71 °F    
Average Humidity 72    
Maximum Humidity 94    
Minimum Humidity 49    
Precipitation  
Precipitation 0.00 in 0.15 in 2.49 in (2005)
Month to date precipitation 1.19 1.99  
Year to date precipitation 20.20 21.88  
Sea Level Pressure  
Sea Level Pressure 29.83 in    
Wind  
Wind Speed 9 mph (SW)    
Max Wind Speed 21 mph    
Max Gust Speed 32 mph    
Visibility 10 miles    
Events      
T = Trace of Precipitation, MM = Missing Value Source: NWS Daily Summary

Daily Weather History Graph

Daily Weather History Graph

Search for Another Location

Airport or City:

Trip Planner

Search our weather history database for the weather conditions in past years. The results will help you decide how hot, cold, wet, or windy it might be!

Date:

Astronomy

Jun. 12, 2013 Rise Set
Actual Time 6:19 AM EDT 9:13 PM EDT
Civil Twilight 5:47 AM EDT 9:45 PM EDT
Nautical Twilight 5:07 AM EDT 10:25 PM EDT
Astronomical Twilight 4:20 AM EDT 11:12 PM EDT
Moon 9:57 AM EDT (6/12) 11:50 PM EDT (6/12)
Length of Visible Light 15h 57m
Length of Day
14h 53m
Waxing Crescent, 14% of the Moon is Illuminated
Jun 12
Waxing Crescent
Jun 16
First Quarter
Jun 23
Full
Jun 30
Last Quarter
Jul 8
New

Hourly Weather History & Observations

Time (EDT) Temp. Heat Index Dew Point Humidity Pressure Visibility Wind Dir Wind Speed Gust Speed Precip Events Conditions
12:53 AM 73.9 °F - 69.1 °F 85% 29.87 in 10.0 mi SSW 5.8 mph - N/A   Clear
1:53 AM 72.0 °F - 70.0 °F 93% 29.88 in 10.0 mi SW 4.6 mph - N/A   Clear
2:53 AM 73.9 °F - 72.0 °F 93% 29.87 in 10.0 mi SW 5.8 mph - N/A   Clear
3:53 AM 75.9 °F - 73.0 °F 91% 29.87 in 10.0 mi WSW 5.8 mph - N/A   Clear
4:53 AM 75.0 °F - 73.0 °F 94% 29.88 in 10.0 mi West 5.8 mph - N/A   Clear
5:53 AM 75.0 °F - 73.0 °F 94% 29.89 in 10.0 mi West 5.8 mph - N/A   Clear
6:53 AM 75.0 °F - 73.0 °F 94% 29.91 in 10.0 mi West 4.6 mph - N/A   Clear
7:53 AM 77.0 °F - 73.0 °F 88% 29.91 in 10.0 mi West 8.1 mph - N/A   Clear
8:53 AM 81.0 °F 85.8 °F 73.0 °F 77% 29.92 in 10.0 mi WSW 10.4 mph - N/A   Clear
9:53 AM 79.0 °F - 73.0 °F 82% 29.92 in 10.0 mi WSW 8.1 mph - N/A   Clear
10:53 AM 81.0 °F 85.8 °F 73.0 °F 77% 29.93 in 10.0 mi West 5.8 mph - N/A   Clear
11:53 AM 84.9 °F 91.4 °F 73.0 °F 67% 29.92 in 10.0 mi Variable 5.8 mph - N/A   Clear
12:53 PM 88.0 °F 95.6 °F 73.0 °F 61% 29.90 in 10.0 mi SW 8.1 mph - N/A   Clear
1:53 PM 88.0 °F 95.6 °F 73.0 °F 61% 29.86 in 10.0 mi SSW 10.4 mph 16.1 mph N/A   Scattered Clouds
2:53 PM 89.1 °F 94.1 °F 70.0 °F 53% 29.84 in 10.0 mi SW 15.0 mph 21.9 mph N/A   Clear
3:53 PM 89.1 °F 95.0 °F 71.1 °F 55% 29.78 in 10.0 mi SW 13.8 mph 25.3 mph N/A   Clear
4:53 PM 88.0 °F 92.1 °F 69.1 °F 53% 29.77 in 10.0 mi SW 13.8 mph 24.2 mph N/A   Clear
5:53 PM 91.0 °F 95.6 °F 69.1 °F 48% 29.77 in 9.0 mi SW 16.1 mph 23.0 mph N/A   Clear
6:53 PM 90.0 °F 95.4 °F 70.0 °F 52% 29.75 in 10.0 mi SSW 10.4 mph - N/A   Clear
7:53 PM 88.0 °F 92.9 °F 70.0 °F 55% 29.73 in 10.0 mi SW 15.0 mph - N/A   Partly Cloudy
8:53 PM 86.0 °F 91.5 °F 71.1 °F 61% 29.73 in 10.0 mi SW 11.5 mph 17.3 mph N/A   Mostly Cloudy
9:53 PM 84.0 °F 89.0 °F 71.1 °F 65% 29.71 in 10.0 mi SSW 6.9 mph - N/A   Partly Cloudy
10:53 PM 84.0 °F 88.4 °F 70.0 °F 63% 29.72 in 10.0 mi SW 9.2 mph 19.6 mph N/A   Mostly Cloudy
11:53 PM 82.9 °F 86.5 °F 69.1 °F 63% 29.70 in 10.0 mi SW 10.4 mph 20.7 mph N/A   Partly Cloudy